Location: Archemont
(49.1579°N, 1.7598°E)
Time: 09:03:48
(UTC+00:00)

Cosmos 1741 Rocket - Pass Details

Date: 03 February 2023
Orbit: 761 x 781 km, 74.0° (Epoch: 28 March)

Event Time Altitude Azimuth Distance (km) Brightness Sun altitude
Rises 18:30:43 0° 179° (S) 3,247 7.3 -16.2°
Reaches altitude 10° 18:33:12 10° 172° (S) 2,326 6.5 -16.6°
Maximum altitude 18:38:06 40° 104° (ESE) 1,140 4.4 -17.4°
Enters shadow 18:40:25 26° 54° (NE) 1,491 5.0 -17.8°
